Simultaneous Nadir Overpasses (SNOs) Predictions

Prediction of SNOs between LANDSAT-8 and NOAA-19 Satellite Orbit:

Table of predicted SNOs for the next 14.0 days since TLE Epoch: 8/26/2022
Index Date (LANDSAT-8) Time (LANDSAT-8) Lat,Lon (LANDSAT-8) SZA (LANDSAT-8 ) Date (NOAA-19) Time (NOAA-19) Lat,Lon (NOAA-19) SZA (NOAA-19 ) Distance(km) Time Diff (sec)
1 08/28/2022 14:44:44 80.86, -4.76 73.06 08/28/2022 14:44:27 80.84, -4.89 73.03 3.19 17
2 08/30/2022 20:18:29 -80.84, 91.54 106.18 08/30/2022 20:17:25 -80.85, 91.66 106.19 2.29 64
3 08/30/2022 21:07:55 80.84,-100.77 73.85 08/30/2022 21:08:19 80.84,-100.77 73.86 0.25 24
4 09/02/2022 02:41:39 -80.85, -4.14 105.33 09/02/2022 02:41:17 -80.85, -4.32 105.35 3.11 22
5 09/02/2022 03:31:06 80.82, 163.20 74.64 09/02/2022 03:32:11 80.84, 163.33 74.70 3.07 65
6 09/04/2022 09:04:49 -80.85, -99.85 104.47 09/04/2022 09:05:08 -80.84, -99.97 104.48 2.39 19
7 09/06/2022 14:38:32 80.86, -3.25 76.38 09/06/2022 14:37:56 80.85, -3.35 76.35 1.95 36
8 09/06/2022 15:27:59 -80.86, 164.41 103.61 09/06/2022 15:28:59 -80.84, 164.33 103.60 2.36 60



Historial Predications of SNOs between LANDSAT-8 and NOAA-19
